| time (UTC) | temp F | wind direction | speed knots | gust knots | rain 1hr in | rain 24hr in | rain mn in | humidity % | barometer mb |
| 20260906230042 | 57 | 9 | 10.4 | 14.8 | 0.00 | 0.88 | 0.57 | 86 | 1007.6 |
| 20260906224539 | 57 | 19 | 7.8 | 11.3 | 0.00 | 0.88 | 0.57 | 87 | 1007.9 |
| 20260906223039 | 57 | 360 | 6.1 | 11.3 | 0.00 | 0.88 | 0.57 | 87 | 1008.0 |
| 20260906221539 | 56 | 327 | 7.8 | 10.4 | 0.00 | 0.88 | 0.57 | 87 | 1008.1 |
| 20260906220041 | 56 | 349 | 6.1 | 11.3 | 0.00 | 0.88 | 0.57 | 87 | 1008.2 |
| 20260906214543 | 56 | 360 | 7.8 | 11.3 | 0.00 | 0.88 | 0.57 | 86 | 1008.1 |
| 20260906213037 | 56 | 5 | 7.8 | 11.3 | 0.00 | 0.88 | 0.57 | 85 | 1008.0 |
| 20260906211537 | 56 | 346 | 7.8 | 11.3 | 0.00 | 0.88 | 0.57 | 85 | 1007.9 |
| 20260906210043 | 56 | 335 | 7.0 | 12.2 | 0.00 | 0.88 | 0.57 | 86 | 1008.0 |
| 20260906204536 | 56 | 11 | 9.6 | 13.0 | 0.00 | 0.88 | 0.57 | 86 | 1008.0 |
| 20260906203037 | 55 | 360 | 8.7 | 14.8 | 0.00 | 0.88 | 0.57 | 88 | 1008.0 |
| 20260906201543 | 55 | 355 | 8.7 | 14.8 | 0.00 | 0.88 | 0.57 | 86 | 1008.0 |
| 20260906200034 | 56 | 346 | 10.4 | 14.8 | 0.00 | 0.88 | 0.57 | 85 | 1008.1 |
| 20260906194534 | 56 | 355 | 9.6 | 16.5 | 0.00 | 0.88 | 0.57 | 83 | 1008.0 |
| 20260906193033 | 57 | 320 | 11.3 | 17.4 | 0.00 | 0.88 | 0.57 | 82 | 1008.1 |
| 20260906191534 | 57 | 9 | 12.2 | 15.6 | 0.00 | 0.88 | 0.57 | 81 | 1008.1 |
| 20260906190032 | 57 | 341 | 12.2 | 19.1 | 0.00 | 0.88 | 0.57 | 79 | 1008.1 |
| 20260906184531 | 56 | 19 | 13.9 | 21.7 | 0.00 | 0.88 | 0.57 | 79 | 1007.9 |
| 20260906183039 | 56 | 25 | 14.8 | 21.7 | 0.00 | 0.88 | 0.57 | 79 | 1007.8 |
| 20260906181538 | 55 | 13 | 14.8 | 20.0 | 0.00 | 0.88 | 0.57 | 80 | 1008.1 |
| 20260906180029 | 54 | 45 | 13.0 | 19.1 | 0.02 | 0.88 | 0.57 | 85 | 1008.7 |
| 20260906174525 | 53 | 34 | 15.6 | 20.0 | 0.02 | 0.88 | 0.57 | 89 | 1008.8 |
| 20260906173025 | 53 | 26 | 15.6 | 20.9 | 0.02 | 0.88 | 0.57 | 92 | 1009.1 |
| 20260906171523 | 52 | 43 | 15.6 | 20.0 | 0.02 | 0.88 | 0.57 | 93 | 1008.6 |
| 20260906170022 | 52 | 321 | 11.3 | 14.8 | 0.00 | 0.86 | 0.56 | 92 | 1010.4 |
| 20260906164521 | 52 | 17 | 9.6 | 14.8 | 0.00 | 0.86 | 0.56 | 91 | 1009.8 |
| 20260906163020 | 52 | 19 | 9.6 | 17.4 | 0.00 | 0.86 | 0.56 | 91 | 1009.9 |
| 20260906161535 | 52 | 33 | 13.9 | 20.0 | 0.00 | 0.86 | 0.56 | 93 | 1009.4 |
| 20260906160019 | 51 | 17 | 13.0 | 17.4 | 0.01 | 0.87 | 0.56 | 94 | 1009.6 |
| 20260906154519 | 51 | 15 | 12.2 | 19.1 | 0.04 | 0.87 | 0.56 | 93 | 1010.0 |
| 20260906153018 | 51 | 30 | 11.3 | 19.1 | 0.15 | 0.87 | 0.56 | 93 | 1010.1 |
| 20260906151520 | 51 | 12 | 11.3 | 16.5 | 0.26 | 0.87 | 0.56 | 93 | 1010.2 |
| 20260906150017 | 51 | 23 | 6.1 | 8.7 | 0.25 | 0.86 | 0.55 | 92 | 1010.8 |
| 20260906144522 | 51 | 323 | 8.7 | 15.6 | 0.22 | 0.83 | 0.52 | 92 | 1010.4 |
| 20260906143015 | 52 | 287 | 4.3 | 13.0 | 0.11 | 0.72 | 0.41 | 94 | 1011.0 |
| 20260906141517 | 52 | 257 | 9.6 | 20.0 | 0.00 | 0.61 | 0.30 | 93 | 1010.5 |
| 20260906140014 | 53 | 263 | 12.2 | 18.2 | 0.00 | 0.67 | 0.30 | 94 | 1010.1 |
| 20260906134515 | 52 | 355 | 7.0 | 11.3 | 0.00 | 0.67 | 0.30 | 94 | 1009.6 |
| 20260906133012 | 52 | 42 | 0.9 | 15.6 | 0.00 | 0.67 | 0.30 | 95 | 1009.8 |
| 20260906131512 | 52 | 36 | 13.0 | 18.2 | 0.00 | 0.67 | 0.30 | 94 | 1009.3 |
| 20260906130016 | 52 | 360 | 10.4 | 20.9 | 0.00 | 0.67 | 0.30 | 92 | 1009.8 |
| 20260906124511 | 54 | 351 | 13.0 | 24.3 | 0.00 | 0.67 | 0.30 | 90 | 1009.8 |
| 20260906123016 | 55 | 21 | 15.6 | 22.6 | 0.00 | 0.67 | 0.30 | 88 | 1009.8 |
| 20260906121521 | 55 | 333 | 15.6 | 22.6 | 0.00 | 0.67 | 0.30 | 86 | 1010.2 |
| 20260906120005 | 57 | 30 | 7.8 | 15.6 | 0.00 | 0.67 | 0.30 | 71 | 1010.1 |
| 20260906114507 | 55 | 15 | 3.5 | 13.0 | 0.00 | 0.67 | 0.30 | 86 | 1010.3 |
| 20260906113100 | 55 | 5 | 7.8 | 18.2 | 0.00 | 0.67 | 0.30 | 87 | 1010.5 |
| 20260906111557 | 54 | 10 | 13.0 | 17.4 | 0.00 | 0.67 | 0.30 | 88 | 1009.9 |
| 20260906110054 | 53 | 31 | 10.4 | 19.1 | 0.00 | 0.67 | 0.30 | 90 | 1009.8 |
| 20260906104554 | 53 | 13 | 16.5 | 22.6 | 0.00 | 0.67 | 0.30 | 91 | 1010.2 |
| 20260906103051 | 52 | 13 | 13.9 | 20.9 | 0.00 | 0.67 | 0.30 | 91 | 1010.4 |
| 20260906101550 | 52 | 38 | 20.0 | 24.3 | 0.01 | 0.67 | 0.30 | 92 | 1010.1 |
| 20260906100046 | 52 | 15 | 15.6 | 20.0 | 0.12 | 0.67 | 0.30 | 95 | 1010.5 |
| 20260906094557 | 52 | 355 | 11.3 | 17.4 | 0.13 | 0.67 | 0.30 | 96 | 1010.7 |
| 20260906093049 | 51 | 20 | 13.0 | 22.6 | 0.15 | 0.67 | 0.30 | 96 | 1010.7 |
| 20260906091544 | 51 | 27 | 16.5 | 22.6 | 0.14 | 0.66 | 0.28 | 96 | 1010.7 |
| 20260906090050 | 51 | 16 | 11.3 | 15.6 | 0.03 | 0.55 | 0.18 | 96 | 1011.8 |
| 20260906084542 | 50 | 321 | 11.3 | 16.5 | 0.02 | 0.54 | 0.17 | 96 | 1012.3 |
| 20260906083045 | 50 | 360 | 9.6 | 16.5 | 0.00 | 0.52 | 0.15 | 95 | 1011.7 |
| 20260906081537 | 50 | 12 | 13.0 | 18.2 | 0.00 | 0.52 | 0.15 | 95 | 1010.8 |
| 20260906080039 | 50 | 327 | 10.4 | 15.6 | 0.01 | 0.52 | 0.15 | 95 | 1011.9 |
| 20260906074534 | 51 | 342 | 7.0 | 13.9 | 0.01 | 0.52 | 0.15 | 95 | 1012.1 |
| 20260906073031 | 51 | 53 | 14.8 | 20.0 | 0.03 | 0.52 | 0.15 | 95 | 1011.4 |
| 20260906071529 | 51 | 5 | 12.2 | 16.5 | 0.11 | 0.52 | 0.15 | 94 | 1012.0 |
| 20260906070028 | 52 | 22 | 8.7 | 17.4 | 0.14 | 0.51 | 0.14 | 94 | 1012.4 |
| 20260906064529 | 52 | 15 | 13.9 | 18.2 | 0.14 | 0.51 | 0.14 | 94 | 1012.1 |
| 20260906063123 | 52 | 317 | 12.2 | 15.6 | 0.12 | 0.49 | 0.12 | 94 | 1012.8 |
| 20260906061519 | 51 | 325 | 7.8 | 13.0 | 0.04 | 0.41 | 0.04 | 94 | 1013.1 |
| 20260906060021 | 51 | 9 | 9.6 | 15.6 | 0.08 | 0.37 | 0.37 | 93 | 1012.8 |
| 20260906054515 | 51 | 350 | 10.4 | 17.4 | 0.13 | 0.37 | 0.37 | 93 | 1012.7 |
| 20260906053014 | 51 | 22 | 13.0 | 16.5 | 0.13 | 0.37 | 0.37 | 92 | 1012.3 |
| 20260906051516 | 51 | 360 | 12.2 | 17.4 | 0.13 | 0.37 | 0.37 | 91 | 1012.2 |
| 20260906050011 | 52 | 325 | 10.4 | 12.2 | 0.06 | 0.28 | 0.28 | 89 | 1013.9 |
| 20260906044509 | 53 | 360 | 11.3 | 16.5 | 0.10 | 0.24 | 0.24 | 87 | 1012.4 |
| 20260906043021 | 53 | 9 | 12.2 | 18.2 | 0.16 | 0.24 | 0.24 | 88 | 1011.6 |
| 20260906041508 | 52 | 36 | 13.9 | 18.2 | 0.17 | 0.24 | 0.24 | 88 | 1011.8 |
| 20260906040007 | 52 | 340 | 15.6 | 23.5 | 0.16 | 0.23 | 0.23 | 85 | 1010.9 |
| 20260906034504 | 53 | 360 | 3.5 | 7.0 | 0.07 | 0.14 | 0.14 | 84 | 1013.5 |
| 20260906033100 | 54 | 15 | 9.6 | 19.1 | 0.01 | 0.08 | 0.08 | 81 | 1012.7 |
| 20260906031558 | 55 | 5 | 13.9 | 20.0 | 0.00 | 0.07 | 0.07 | 78 | 1011.9 |
| 20260906030055 | 55 | 23 | 14.8 | 21.7 | 0.00 | 0.07 | 0.07 | 78 | 1011.2 |
| 20260906024556 | 55 | 11 | 11.3 | 15.6 | 0.00 | 0.07 | 0.07 | 77 | 1010.8 |
| 20260906023054 | 55 | 30 | 12.2 | 17.4 | 0.00 | 0.07 | 0.07 | 77 | 1010.6 |
| 20260906021559 | 56 | 15 | 12.2 | 17.4 | 0.00 | 0.07 | 0.07 | 76 | 1010.8 |
| 20260906020051 | 56 | 360 | 13.9 | 18.2 | 0.00 | 0.07 | 0.07 | 75 | 1010.7 |
| 20260906014552 | 57 | 342 | 11.3 | 18.2 | 0.00 | 0.07 | 0.07 | 73 | 1010.7 |
| 20260906013051 | 58 | 17 | 14.8 | 18.2 | 0.00 | 0.07 | 0.07 | 72 | 1010.4 |
| 20260906011550 | 58 | 11 | 13.0 | 18.2 | 0.00 | 0.07 | 0.07 | 71 | 1010.5 |
| 20260906010118 | 59 | 13 | 14.8 | 19.1 | 0.00 | 0.07 | 0.07 | 70 | 1010.2 |
| 20260906004605 | 59 | 15 | 12.2 | 18.2 | 0.00 | 0.07 | 0.07 | 70 | 1010.3 |
| 20260906003048 | 60 | 30 | 12.2 | 17.4 | 0.00 | 0.07 | 0.07 | 69 | 1010.5 |
| 20260906001600 | 60 | 333 | 11.3 | 18.2 | 0.00 | 0.07 | 0.07 | 69 | 1010.5 |
| 20260906000047 | 60 | 12 | 13.0 | 17.4 | 0.00 | 0.07 | 0.07 | 69 | 1010.6 |
| 20260905234545 | 60 | 5 | 11.3 | 18.2 | 0.00 | 0.07 | 0.07 | 69 | 1010.7 |
| 20260905233046 | 61 | 5 | 12.2 | 18.2 | 0.00 | 0.07 | 0.07 | 68 | 1010.6 |
| 20260905231545 | 62 | 350 | 7.8 | 15.6 | 0.00 | 0.07 | 0.07 | 64 | 1010.5 |